sim
Sign-in with your pilot id or email,
or register
Callsign
Passwort

Schedule Details

Flight Number: RYR3701 (2)
Departure: East Midlands Airport (EGNX) at 13:05
Arrival: Fuerteventura Airport (GCFV) at 17:20
Route: Ryanair Passenger Schedule. Enter filed route here before submitting Pirep.

Weather Information
Getting current METAR information for EGNX 182050Z 06010KT CAVOK 11/07 Q1027
Getting current METAR information for GCFV 182100Z 36015KT 9999 FEW045 18/10 Q1019

Schedule Frequency

Route Map